TimeMDT,TemperatureF,Dew PointF,Humidity,Sea Level PressureIn,VisibilityMPH,Wind Direction,Wind SpeedMPH,Gust SpeedMPH,PrecipitationIn,Events,Conditions,WindDirDegrees,DateUTC
12:53 AM,21.9,10.9,63,30.23,7.0,NW,16.1,-,0.00,Snow,Light Snow,320,2013-04-09 06:53:00
1:12 AM,21.2,12.2,68,30.12,6.0,NNW,12.7,-,0.00,Snow,Light Snow,330,2013-04-09 07:12:00
1:43 AM,21.2,14.0,74,30.14,2.5,North,6.9,-,0.00,Snow,Light Snow,350,2013-04-09 07:43:00
1:53 AM,21.9,15.1,75,30.27,1.5,NNW,5.8,-,0.00,Snow,Light Snow,330,2013-04-09 07:53:00
2:04 AM,19.4,15.8,86,30.15,1.0,NNW,8.1,-,0.00,Snow,Light Snow,340,2013-04-09 08:04:00
2:34 AM,19.4,17.6,93,30.15,0.8,Calm,Calm,-,0.00,Snow,Light Snow,0,2013-04-09 08:34:00
2:53 AM,19.9,18.0,92,30.28,0.5,NNW,3.5,-,0.02,Fog-Snow,Snow,330,2013-04-09 08:53:00
3:53 AM,19.0,16.0,88,30.29,0.8,NNW,12.7,-,0.04,Snow,Light Snow,330,2013-04-09 09:53:00
4:05 AM,19.4,15.8,86,30.15,1.0,NNW,12.7,-,0.00,Snow,Light Snow,330,2013-04-09 10:05:00
4:26 AM,19.4,15.8,86,30.17,1.2,NNW,12.7,-,0.00,Snow,Light Snow,330,2013-04-09 10:26:00
4:51 AM,19.4,15.8,86,30.18,1.0,NNW,10.4,-,0.00,Snow,Light Snow,330,2013-04-09 10:51:00
4:53 AM,19.0,16.0,88,30.32,1.0,NW,11.5,-,0.00,Snow,Light Snow,320,2013-04-09 10:53:00
5:00 AM,17.6,15.8,93,30.18,1.0,NNW,11.5,-,0.00,Snow,Light Snow,330,2013-04-09 11:00:00
5:04 AM,17.6,15.8,93,30.18,1.2,NNW,11.5,-,0.00,Snow,Light Snow,330,2013-04-09 11:04:00
5:50 AM,17.6,14.0,86,30.20,2.0,NNW,12.7,-,0.00,Snow,Light Snow,330,2013-04-09 11:50:00
5:53 AM,18.0,14.0,84,30.36,2.0,NW,11.5,-,0.00,Snow,Light Snow,320,2013-04-09 11:53:00
6:00 AM,17.6,14.0,86,30.20,1.8,NNW,12.7,-,0.00,Snow,Light Snow,330,2013-04-09 12:00:00
6:12 AM,17.6,14.0,86,30.20,2.0,NW,12.7,-,0.00,Snow,Light Snow,320,2013-04-09 12:12:00
6:20 AM,17.6,12.2,79,30.20,4.0,NW,10.4,-,0.00,Snow,Light Snow,320,2013-04-09 12:20:00
6:53 AM,18.0,12.0,78,30.36,10.0,NW,11.5,-,0.00,,Mostly Cloudy,320,2013-04-09 12:53:00
7:03 AM,17.6,12.2,79,30.21,10.0,WNW,11.5,-,N/A,,Partly Cloudy,300,2013-04-09 13:03:00
7:53 AM,19.0,10.9,71,30.40,10.0,NW,13.8,-,N/A,,Overcast,310,2013-04-09 13:53:00
8:53 AM,19.0,10.0,68,30.42,10.0,NW,12.7,-,N/A,,Overcast,310,2013-04-09 14:53:00
9:53 AM,21.9,10.0,60,30.42,10.0,Calm,Calm,-,N/A,,Partly Cloudy,0,2013-04-09 15:53:00
10:53 AM,23.0,10.9,60,30.43,10.0,Calm,Calm,-,N/A,,Overcast,0,2013-04-09 16:53:00
11:53 AM,25.0,12.0,58,30.41,10.0,North,4.6,-,N/A,,Overcast,350,2013-04-09 17:53:00
12:53 PM,27.0,12.9,56,30.39,10.0,Calm,Calm,-,N/A,,Overcast,0,2013-04-09 18:53:00
1:53 PM,28.9,14.0,54,30.37,10.0,NNW,6.9,18.4,N/A,,Overcast,330,2013-04-09 19:53:00
2:53 PM,30.9,14.0,50,30.37,10.0,NW,12.7,-,N/A,,Partly Cloudy,320,2013-04-09 20:53:00
3:53 PM,30.9,15.1,52,30.36,10.0,WNW,10.4,-,N/A,,Clear,300,2013-04-09 21:53:00
4:53 PM,32.0,12.9,45,30.35,10.0,WNW,10.4,-,N/A,,Mostly Cloudy,300,2013-04-09 22:53:00
5:53 PM,30.9,10.9,43,30.37,10.0,NW,8.1,-,N/A,,Overcast,320,2013-04-09 23:53:00
6:53 PM,30.9,12.0,46,30.38,10.0,NNW,8.1,-,N/A,,Overcast,330,2013-04-10 00:53:00
7:53 PM,28.0,12.0,51,30.38,10.0,NW,10.4,-,N/A,,Overcast,320,2013-04-10 01:53:00
8:53 PM,26.1,9.0,49,30.40,10.0,NNW,12.7,-,N/A,,Mostly Cloudy,330,2013-04-10 02:53:00
9:53 PM,25.0,10.9,55,30.40,10.0,WNW,4.6,-,N/A,,Overcast,300,2013-04-10 03:53:00
10:53 PM,24.1,12.0,60,30.39,10.0,WNW,3.5,-,N/A,,Scattered Clouds,290,2013-04-10 04:53:00
11:53 PM,24.1,12.0,60,30.38,10.0,WNW,5.8,-,N/A,,Overcast,300,2013-04-10 05:53:00